SCP
0 0 0 0 0 -0 -0 -0 -0 -0 -0 -0 -0 -0 -0 -0 -0 0 0 0 0 0 0 0 0 0 0 0 0 0 0 0 0 0 0 0 0 0 0 0 0 0 0 0 0 0 0 0 0 0 0 0 0 0
0 0 0 0 0 -0 -0 -0 -0 -0 -0 -0 -0 -0 -0 -0 -0 0 0 0 0 0 0 0 0 0 0 0 0 0 0 0 0 0 0 0 0 0 0 0 0 0 0 0 0 0 0 0 0 0 0 0 0 0
0 0 0 0 0 -0 -0 -0 -0 -0 -0 -0 -0 -0 -0 -0 0 0 0 0 0 0 0 0 0 0 0 0 0 0 0 0 0 0 0 0 0 0 0 0 0 0 0 0 0 0 0 0 0 0 0 0 0 0
0 0 0 0 0 -0 -0 -0 -0 -0 -0 -0 -0 -0 -0 -0 -0 0 0 0 0 0 0 0 0 0 0 0 0 0 0 0 0 0 0 0 0 0 0 0 0 0 0 0 0 0 0 0 0 0 0 0 0 0
0 0 0 0 -0 -0 -0 -0 -0 -0 -0 -0 -0 -0 -0 -0 -0 0 0 0 0 0 0 0 0 0 0 0 0 0 0 0 0 0 0 0 0 0 0 0 0 0 0 0 0 0 0 0 0 0 0 0 0 0
0 0 0 0 -0 -0 -0 -0 -0 -0 -0 -0 -0 -0 -0 -0 0 0 0 0 0 -0 0 0 0 0 0 0 0 0 0 0 0 0 0 0 0 0 0 0 0 0 0 0 0 0 0 0 0 0 0 0 0 0
0 0 0 -0 -0 -0 -0 -0 -0 -0 -0 -0 -0 -0 -0 -0 0 0 0 0 0 -0 0 0 0 0 0 0 0 0 0 0 0 0 0 0 0 0 0 0 0 0 0 0 0 0 0 0 0 0 0 0 0 0
0 0 0 -0 -0 -0 -0 -0 -0 -0 -0 -0 -0 -0 -0 0 -0 0 0 0 0 0 0 0 0 0 -0 0 0 -0 0 0 0 0 0 0 0 0 0 0 0 0 0 0 0 0 0 0 0 0 0 0 0 0
0 0 0 -0 -0 -0 -0 -0 -0 -0 -0 -0 -0 -0 -0 0 0 0 0 -0 0 -0 0 0 0 0 0 0 -0 0 -0 0 0 0 0 0 0 0 0 0 0 0 0 0 0 0 0 0 0 0 0 0 0 0
0 0 0 -0 -0 -0 -0 -0 -0 -0 -0 -0 -0 -0 0 0 0 -0 0 0 0 0 0 0 0 0 -0 -0 0 0 0 0 0 0 0 0 0 0 0 0 0 0 0 0 0 0 0 0 0 0 0 0 0 0
0 0 -0 -0 -0 -0 -0 -0 -0 -0 -0 -0 -0 0 0 0 -0 0 0 0 0 0 0 0 0 0 0 -0 0 0 0 0 0 0 0 0 0 0 0 0 0 0 0 0 0 0 0 0 0 0 0 0 0 0
0 0 -0 -0 -0 -0 -0 -0 -0 -0 -0 -0 -0 0 -0 -0 0 0 0 0 0 0 0 0 0 0 0 0 0 0 0 0 0 0 0 0 0 0 0 0 0 0 0 0 0 0 0 0 0 0 0 0 0 0
-0 -0 -0 -0 -0 -0 -0 -0 -0 -0 -0 -0 -0 -0 -0 0 0 0 0 0 0 0 0 0 0 0 0 0 0 0 0 0 0 0 0 0 0 0 0 0 0 0 0 0 0 0 0 0 0 0 0 0 0 0
-0 -0 -0 -0 -0 -0 -0 -0 -0 0 -0 -0 -0 0 0 0 0 0 0 0 0 0 0 0 0 0 0 0 0 0 0 0 0 0 0 0 0 0 0 0 0 0 0 0 0 0 0 0 0 0 0 0 0 0
-0 -0 -0 0 -0 -0 -0 -0 -0 0 -0 0 0 0 0 0 0 0 0 0 0 0 -0 0 0 0 0 0 0 0 0 0 0 0 0 0 0 0 0 0 0 0 0 0 0 0 0 0 0 0 0 0 0 0
-0 -0 0 0 -0 -0 -0 -0 -0 -0 -0 -0 0 0 0 0 0 0 0 0 0 0 0 0 0 0 0 0 0 0 0 0 0 0 0 0 0 0 0 0 0 0 0 0 0 0 0 0 0 0 0 0 0 0
-0 0 0 0 -0 -0 0 0 0 0 0 0 0 0 0 0 0 0 0 0 0 0 0 0 0 0 0 0 0 0 0 0 0 0 0 0 0 0 0 0 0 0 0 0 0 0 0 0 0 0 0 0 0 0
0 0 0 0 0 0 0 0 0 0 0 0 0 0 0 0 0 0 0 0 0 0 0 0 0 0 0 0 0 0 0 0 0 0 0 0 0 0 0 0 0 0 0 0 0 0 0 0 0 0 0 0 0 0
0 0 -0 0 0 0 0 0 0 0 0 0 0 0 0 0 0 0 0 0 0 -0 0 0 0 0 0 0 0 0 0 0 0 0 0 0 0 0 0 0 0 0 0 0 0 0 0 0 0 0 0 0 0 0
0 0 0 0 -0 -0 0 0 0 0 0 0 0 0 0 0 0 0 0 0 0 0 0 0 0 0 0 0 0 0 0 0 0 0 0 0 0 0 0 0 0 0 0 0 0 0 0 0 0 0 0 0 0 0
0 0 0 -0 0 0 0 0 0 0 0 0 0 0 0 0 0 0 0 -0 0 0 0 0 0 0 0 0 0 0 0 0 0 0 0 0 0 0 0 0 0 0 0 0 0 0 0 0 0 0 0 0 0 0
0 0 -0 -0 0 0 0 0 0 0 0 0 0 0 0 0 0 0 0 0 0 0 0 0 0 0 0 0 0 0 0 0 0 0 0 0 0 0 0 0 0 0 0 0 0 0 0 0 0 0 0 0 0 -0
0 -0 -0 0 0 0 0 0 0 0 0 0 0 0 0 0 0 0 0 0 0 0 0 0 0 0 0 0 0 0 0 0 0 0 0 0 0 0 0 0 0 0 0 0 0 0 0 0 0 0 0 0 0 -0
-0 0 0 0 0 0 0 0 0 0 0 0 0 0 0 0 0 0 0 0 0 0 0 0 0 0 0 0 0 0 0 0 0 0 0 0 0 0 0 0 0 0 0 0 0 0 0 0 0 0 0 0 0 0
0 0 0 0 0 0 0 0 0 0 0 0 0 0 0 0 0 0 0 0 0 0 0 0 0 0 0 0 0 0 0 0 0 0 0 0 0 0 0 0 0 0 0 0 0 0 0 0 0 0 0 0 0 0
0 0 0 0 0 0 0 0 0 0 0 0 0 0 0 0 0 0 0 0 0 0 0 0 0 0 0 0 0 0 0 0 0 0 0 0 0 0 0 0 0 0 0 0 0 0 0 0 0 0 0 0 0 0
0 0 0 0 0 0 0 0 0 0 0 0 0 0 0 0 0 0 0 0 0 0 0 0 0 0 0 0 0 0 0 0 0 0 0 0 0 0 0 0 0 0 0 0 0 0 0 0 0 0 0 0 0 0
0 0 0 0 0 0 0 0 0 0 0 0 0 -0 -0 0 0 0 0 0 0 0 0 0 0 0 0 0 0 0 0 0 0 0 0 0 0 0 0 0 0 0 0 0 0 0 0 0 0 0 0 0 0 0
0 0 0 0 0 0 0 0 0 0 0 0 0 0 0 0 0 0 0 0 0 0 0 0 0 0 0 0 0 0 0 0 0 0 0 0 0 0 0 0 0 0 0 0 0 0 0 0 0 0 0 0 0 0
0 0 0 0 0 0 0 0 0 0 0 0 0 0 0 0 0 0 0 0 0 0 0 0 0 0 0 0 0 0 0 0 0 0 0 0 0 0 0 0 0 0 0 0 0 0 0 0 0 0 0 0 0 0
0 0 0 0 0 0 0 0 0 0 0 0 0 0 0 0 0 0 0 0 0 0 0 0 0 0 0 0 0 0 0 0 0 0 0 0 0 0 0 0 0 0 0 0 0 0 0 0 0 0 0 0 0 0
0 0 0 0 -0 0 0 0 0 0 0 0 0 0 0 0 0 0 0 0 0 0 0 0 0 0 0 0 0 0 0 0 0 0 0 0 0 0 0 0 0 0 0 0 0 0 0 0 0 0 0 0 0 0
0 0 0 0 0 0 0 0 0 0 0 0 0 0 0 0 0 0 0 0 0 0 0 0 0 0 0 0 0 0 0 0 0 0 0 0 0 0 0 0 0 0 0 0 0 0 0 0 0 0 0 0 0 0
Wind_Speed_500mb
10 18 24 32 39 44 48 50 48 45 36 23 11 17 24 26 16 15 15 8 12 10 13 13 10 7 6 2 5 12 11 10 9 10 9 9 10 3 9 4 6 8 8 8 3 8 11 16 14 11 11 9 8 6
12 18 25 32 39 45 49 49 47 44 36 22 8 12 17 21 13 13 13 16 18 13 14 22 20 17 14 4 0 16 2 3 8 5 4 3 9 4 11 12 6 6 6 8 6 10 12 12 6 13 8 10 7 1
12 18 25 33 41 46 49 48 45 43 35 18 7 8 11 14 20 22 20 25 24 22 21 8 6 9 10 4 2 4 9 6 7 7 3 1 8 4 9 5 5 6 7 4 6 13 16 17 15 12 8 5 1 7
13 20 27 35 42 47 48 44 41 40 29 14 10 5 7 11 11 18 16 13 10 8 5 11 15 18 13 10 5 6 14 11 9 4 4 4 5 5 2 7 12 6 15 7 4 14 15 16 13 9 7 6 9 11
14 22 29 37 42 46 46 39 37 31 21 16 13 6 4 7 9 11 16 13 11 5 6 14 13 19 23 20 14 11 8 6 6 4 2 3 4 7 2 5 10 14 5 8 6 16 11 11 21 10 6 5 6 9
16 24 31 38 43 46 42 34 35 22 15 18 16 10 4 7 7 6 4 11 14 12 3 4 8 7 9 12 12 8 6 6 4 4 6 5 1 5 6 4 5 10 8 3 3 15 8 15 15 8 4 2 2 7
18 26 33 38 44 45 37 32 29 14 17 19 14 13 6 7 5 4 4 7 10 12 2 7 8 2 7 8 6 8 13 6 4 5 3 4 5 6 5 5 10 14 11 8 14 20 16 16 11 7 6 4 3 8
20 28 34 39 43 42 34 29 22 14 21 15 10 12 12 14 10 7 8 8 8 6 4 1 5 8 3 4 4 7 3 2 7 4 5 2 7 5 4 8 14 18 16 17 22 11 7 13 11 9 5 5 9 13
22 29 35 40 42 39 32 25 19 20 20 10 7 8 8 5 4 5 8 7 7 4 5 4 8 7 1 2 4 2 3 2 3 2 4 5 4 4 7 17 23 24 21 19 18 13 12 14 10 7 7 10 14 15
24 31 35 40 39 36 29 25 18 23 8 6 6 4 5 4 5 9 4 2 3 6 8 8 4 4 4 2 3 7 4 5 4 6 1 6 2 4 2 13 21 25 17 20 18 17 17 13 10 9 11 15 15 14
27 32 36 38 34 31 24 25 20 22 10 10 7 4 4 6 5 4 2 5 5 5 8 7 8 8 5 11 8 7 7 5 5 7 6 2 3 14 3 18 21 23 20 18 12 10 12 10 11 11 14 15 15 13
28 32 35 32 31 26 21 25 17 18 18 13 7 12 10 8 6 3 4 2 6 7 9 12 10 6 3 3 8 1 3 6 4 4 5 4 9 15 8 19 19 20 18 16 15 11 12 12 11 11 12 13 12 13
28 32 31 26 29 21 15 23 16 14 10 10 8 6 8 7 11 2 3 4 3 8 13 15 7 4 4 4 5 4 4 1 1 4 5 8 19 11 10 15 18 18 18 17 19 17 17 17 14 12 12 12 12 14
28 29 22 28 23 17 10 19 20 16 11 6 7 11 5 4 6 7 8 8 8 9 16 17 11 6 4 6 4 6 3 5 5 2 8 11 16 9 13 16 17 19 20 19 18 18 20 20 17 16 15 14 14 15
28 21 22 23 20 14 6 9 19 14 7 7 6 5 6 7 8 7 6 5 6 13 16 17 13 7 2 5 1 3 5 1 7 9 8 17 16 12 8 14 16 16 18 20 21 22 22 21 20 19 19 19 20 21
26 21 28 24 18 12 10 3 7 11 7 6 7 6 5 4 5 1 8 11 14 16 12 8 7 6 2 6 1 6 11 8 7 13 18 18 18 16 12 10 13 15 19 22 25 27 24 23 20 22 20 23 24 24
23 27 28 24 17 10 11 7 7 7 6 4 8 10 7 4 5 6 8 13 15 9 4 5 3 9 4 2 5 8 7 10 15 14 15 15 15 16 14 13 15 18 21 25 25 23 25 25 22 23 25 23 25 30
26 24 25 22 20 7 14 8 5 5 7 6 4 8 4 4 3 5 9 13 10 10 6 7 5 4 6 5 6 9 12 14 10 10 13 15 15 17 17 19 20 22 23 22 20 21 25 31 37 37 31 31 37 40
25 22 21 19 18 9 6 7 6 5 7 6 4 3 2 1 1 6 8 11 12 6 3 1 3 5 6 8 10 10 13 14 14 15 16 15 17 19 23 25 28 29 28 27 26 27 28 30 35 36 37 37 39 39
18 18 15 16 14 7 4 5 6 4 4 4 1 2 3 1 4 4 4 7 6 3 2 2 7 10 10 7 6 7 7 8 11 18 20 24 22 23 27 30 33 33 33 32 32 34 31 31 30 28 34 37 43 46
13 16 12 13 9 8 5 5 5 4 2 1 4 4 1 3 2 4 5 9 4 2 4 5 10 9 9 7 4 1 3 6 11 18 24 30 30 30 33 36 38 39 38 34 32 28 30 31 35 41 45 50 46 46
15 12 10 9 7 5 5 7 2 2 0 2 1 4 2 3 6 7 6 1 3 6 3 3 4 4 4 4 6 8 12 17 21 22 26 30 34 34 37 32 33 35 34 32 30 28 21 23 27 35 42 46 47 45
10 9 6 8 4 5 3 6 1 3 2 4 2 3 2 1 5 7 1 3 3 7 5 6 7 5 7 11 16 20 20 20 23 29 31 33 33 30 30 31 31 32 34 34 29 32 34 37 42 41 46 43 39 43
7 4 3 4 5 3 3 2 3 3 1 1 2 1 3 5 6 4 2 3 8 7 4 2 4 11 15 16 20 25 25 23 26 28 31 31 28 30 30 30 32 31 32 35 36 31 37 44 46 45 44 41 40 41
4 5 4 4 4 3 3 3 4 2 3 5 4 0 4 5 5 4 1 5 7 6 6 8 12 18 24 30 32 32 29 28 30 30 31 28 32 36 39 42 41 42 40 38 35 39 41 41 41 40 41 44 47 50
5 5 5 7 4 5 6 2 4 7 5 4 3 6 5 7 6 2 3 3 3 6 14 21 28 33 34 35 37 31 26 22 25 26 30 34 40 42 41 42 39 35 34 36 39 44 46 46 46 46 48 47 48 50
3 5 3 5 3 4 2 2 4 5 4 5 6 9 6 5 3 4 3 1 8 18 22 26 26 27 30 30 26 25 29 33 29 34 38 25 17 13 16 25 32 38 49 46 41 39 41 44 48 51 52 53 55 57
2 3 2 6 3 4 6 5 4 3 1 4 10 6 7 5 9 13 7 14 27 36 33 24 19 24 27 22 16 17 19 19 18 18 14 1 20 30 36 36 33 43 42 42 47 43 42 45 45 47 48 49 48 44
1 2 3 2 3 3 2 2 3 1 4 10 11 17 19 27 19 26 32 36 33 28 25 23 19 15 6 9 14 18 22 26 28 33 33 32 37 40 45 49 53 55 55 62 59 49 51 63 63 58 61 55 52 51
2 4 4 4 5 4 2 6 13 13 12 18 25 32 35 30 20 25 26 23 14 11 11 12 15 17 17 14 15 19 23 27 28 31 33 33 36 41 46 47 45 44 46 53 57 60 61 62 63 62 60 59 60 59
3 4 5 5 7 11 13 17 19 21 27 30 32 33 31 20 8 9 7 6 7 8 9 12 15 19 19 20 21 21 24 30 33 41 44 39 32 36 44 46 42 43 44 46 48 49 52 54 52 53 53 54 53 52
5 5 7 10 19 15 16 12 24 33 37 34 30 23 14 10 9 5 3 7 8 12 16 17 18 19 22 22 21 26 36 36 30 28 32 40 42 45 48 49 43 44 47 51 53 55 55 55 55 59 62 64 62 59
8 9 10 11 10 13 23 21 25 25 20 24 16 6 5 6 4 6 4 6 6 9 15 17 20 23 38 44 34 28 30 27 31 36 41 43 41 48 56 57 55 54 53 55 58 58 56 54 58 61 60 59 63 67
Wind_Direction_500mb
352 358 357 356 354 353 354 356 355 358 355 355 356 5 14 19 47 62 51 73 102 89 57 57 44 70 57 74 207 141 159 205 212 251 277 281 278 186 261 339 273 264 270 247 270 271 240 147 155 253 81 119 152 165
348 351 354 354 350 352 353 353 354 355 351 355 354 13 23 27 59 75 59 80 94 91 116 90 73 68 76 80 319 177 357 192 220 239 228 290 238 215 287 261 181 246 313 347 332 29 113 160 95 129 135 149 157 219
345 349 351 350 351 351 352 352 353 353 352 355 2 22 38 52 96 71 81 96 100 105 98 87 44 30 41 45 51 288 226 205 219 195 210 346 245 291 243 249 171 189 198 257 215 147 155 145 143 148 163 161 206 318
341 347 349 350 350 350 351 350 353 354 359 13 5 17 65 62 119 58 76 89 113 109 118 80 71 59 65 69 52 278 264 244 194 187 214 206 253 222 341 11 269 33 168 175 154 170 166 186 184 185 201 247 289 313
340 345 348 350 349 349 349 351 355 356 4 12 10 15 115 92 120 73 71 66 73 91 78 124 94 59 57 56 54 54 74 129 172 171 207 99 111 194 106 265 224 191 155 228 11 152 217 164 194 199 227 291 305 320
340 345 347 349 348 347 350 353 356 358 10 15 15 22 131 140 111 87 111 83 73 99 172 131 119 73 43 41 48 68 87 79 88 82 89 107 151 283 231 296 76 164 159 127 75 156 167 144 157 175 223 233 297 324
342 343 346 348 347 348 351 353 358 355 359 9 11 26 65 145 113 92 58 138 76 69 73 133 149 104 41 44 38 47 53 64 59 113 91 100 158 241 282 306 133 171 168 147 144 146 148 163 175 175 177 183 295 323
341 343 345 346 347 349 349 355 0 346 348 359 24 42 65 112 107 44 91 115 81 61 44 144 93 175 22 37 88 12 46 124 38 100 143 179 167 246 265 120 150 155 152 150 161 169 174 175 175 169 194 256 300 314
339 342 344 347 348 347 350 359 3 345 355 34 87 73 68 68 60 32 115 94 95 57 9 318 356 52 177 47 323 257 295 160 140 179 101 241 139 244 48 166 171 170 166 174 178 192 183 178 188 209 267 289 302 308
338 342 345 347 347 348 354 2 3 1 40 45 67 106 112 17 91 105 47 72 67 33 30 39 356 65 277 249 143 296 336 5 289 72 267 254 15 79 105 173 173 172 173 170 176 185 186 201 212 245 279 298 293 287
340 343 345 345 347 351 358 5 15 15 45 45 50 70 136 105 75 37 64 4 358 130 28 21 11 333 7 308 1 2 354 309 259 93 291 341 32 45 156 164 168 175 176 184 201 205 212 214 232 258 279 288 285 275
340 341 341 346 350 353 1 8 18 15 21 28 53 64 53 35 38 48 43 53 13 49 19 351 356 337 328 292 272 80 266 266 25 86 284 306 37 4 166 171 175 184 192 203 207 221 221 236 240 246 277 283 276 275
338 340 343 347 351 352 0 16 19 7 17 36 37 53 26 27 48 32 122 110 94 10 11 345 337 318 256 242 263 264 265 34 21 249 11 47 357 348 186 188 188 191 198 208 219 229 227 220 218 243 264 272 268 279
339 341 348 351 353 353 349 21 24 26 45 49 37 16 16 74 57 35 43 48 49 356 349 335 301 315 319 249 334 246 69 265 251 300 42 22 352 333 214 210 208 215 220 228 235 236 233 225 234 255 259 256 265 281
347 352 355 357 358 358 327 356 20 35 47 59 43 51 68 71 75 61 29 338 349 330 326 321 270 254 237 258 321 332 223 313 12 32 2 355 348 345 274 237 239 245 241 245 251 251 242 237 248 260 261 257 267 279
354 6 5 4 360 12 9 324 5 38 50 53 52 120 99 214 119 338 343 336 337 318 291 255 268 257 117 316 241 4 316 15 27 7 357 353 358 353 331 286 275 278 269 267 271 262 251 244 261 273 266 261 269 276
3 359 1 7 8 25 29 69 48 54 64 77 87 65 49 39 26 25 5 351 337 320 10 309 291 34 296 1 55 4 25 5 352 352 356 1 354 348 340 317 299 293 288 287 281 264 251 257 261 267 268 274 267 277
1 3 4 6 14 54 51 53 63 69 79 88 113 80 46 41 43 52 6 351 357 358 340 31 322 31 19 15 32 29 357 341 337 340 336 335 339 335 327 317 311 303 294 289 280 269 257 254 260 269 272 278 280 286
356 1 5 7 12 33 32 26 58 85 78 91 78 36 344 303 328 334 340 344 357 6 345 269 62 34 45 31 358 5 3 3 350 340 332 327 324 321 318 312 304 301 294 284 272 269 267 267 271 272 272 274 278 279
345 353 0 8 13 41 37 32 53 68 101 61 89 7 317 314 314 321 333 347 327 287 176 93 63 67 54 68 65 48 28 10 4 351 349 341 328 321 320 316 311 306 300 293 286 275 266 267 273 282 281 280 278 276
351 353 355 4 28 46 65 31 61 59 36 172 350 326 337 318 3 9 340 322 229 10 121 108 124 128 129 128 129 122 312 335 329 324 322 319 322 325 323 323 321 313 304 298 289 291 292 276 275 287 278 278 276 279
349 352 5 24 34 42 65 31 41 320 271 321 336 337 59 66 24 8 331 168 70 40 23 164 161 167 224 260 264 291 295 308 308 314 320 322 318 324 324 324 330 336 338 318 302 307 307 303 305 305 299 290 283 278
349 3 32 24 16 42 71 9 317 9 289 29 289 205 126 22 10 344 205 46 68 342 283 216 218 248 283 294 298 297 297 300 307 315 319 321 320 323 326 329 327 324 322 324 321 311 309 308 306 309 311 304 292 289
7 41 35 27 22 39 342 42 357 351 311 252 352 338 49 351 319 275 348 83 15 15 48 36 321 309 302 294 299 315 313 307 305 309 319 319 318 324 327 321 320 322 319 320 315 308 317 320 311 306 307 308 303 298
32 19 16 22 18 346 34 45 27 30 46 15 305 297 36 314 282 292 260 88 47 59 42 6 330 315 310 309 310 310 314 308 307 307 313 314 312 310 311 315 315 315 317 313 308 310 310 317 323 321 314 309 306 302
68 24 28 14 42 360 13 4 30 358 331 315 5 336 305 286 266 247 96 88 60 356 339 329 321 315 313 314 314 314 315 311 304 300 303 308 311 310 310 309 312 315 320 314 316 308 303 300 300 302 305 307 310 312
59 74 47 23 342 320 255 359 335 301 318 338 357 328 302 277 288 83 358 297 318 320 322 320 314 309 306 308 305 300 305 302 301 298 304 320 344 338 343 344 336 325 319 326 326 322 315 309 305 303 302 300 300 301
50 23 3 6 357 347 310 305 299 333 45 4 312 303 302 291 300 342 327 305 314 311 314 313 312 304 306 310 314 321 313 328 345 326 331 260 315 333 341 350 346 346 346 344 344 344 339 336 333 326 320 314 309 309
84 352 329 295 304 263 261 294 303 348 334 318 301 297 281 299 301 294 297 305 309 314 316 313 333 355 5 5 24 20 15 16 14 16 11 356 345 343 345 341 338 335 333 331 332 333 328 324 326 322 320 318 314 309
99 357 292 275 284 274 224 291 295 287 284 294 297 292 288 288 260 291 306 315 338 350 353 10 26 36 43 41 24 17 14 13 11 8 358 344 334 330 332 335 334 333 333 331 332 330 329 329 328 326 326 326 323 318
285 279 262 265 275 301 302 296 291 283 290 290 291 288 290 298 259 302 327 358 36 43 44 32 25 24 18 8 3 358 352 350 343 338 337 339 336 334 333 334 332 332 331 332 332 331 330 332 330 330 329 328 325 326
267 261 286 289 308 309 308 300 299 296 296 296 297 290 275 249 209 225 11 66 65 53 44 33 17 1 355 348 333 335 330 332 331 332 330 329 330 331 332 333 330 327 326 324 323 323 321 320 320 322 321 320 319 318
269 265 277 288 292 301 313 311 305 301 291 289 295 268 262 274 151 190 133 100 84 26 9 7 357 347 339 333 328 319 327 323 315 325 324 327 328 326 326 325 323 321 321 319 317 316 315 316 314 315 316 317 317 316
Wind_Speed_850mb
10 18 24 32 39 44 48 50 48 45 36 23 11 17 24 26 16 15 15 8 12 10 13 13 10 7 6 2 5 12 11 10 9 10 9 9 10 3 9 4 6 8 8 8 3 8 11 16 14 11 11 9 8 6
12 18 25 32 39 45 49 49 47 44 36 22 8 12 17 21 13 13 13 16 18 13 14 22 20 17 14 4 0 16 2 3 8 5 4 3 9 4 11 12 6 6 6 8 6 10 12 12 6 13 8 10 7 1
12 18 25 33 41 46 49 48 45 43 35 18 7 8 11 14 20 22 20 25 24 22 21 8 6 9 10 4 2 4 9 6 7 7 3 1 8 4 9 5 5 6 7 4 6 13 16 17 15 12 8 5 1 7
13 20 27 35 42 47 48 44 41 40 29 14 10 5 7 11 11 18 16 13 10 8 5 11 15 18 13 10 5 6 14 11 9 4 4 4 5 5 2 7 12 6 15 7 4 14 15 16 13 9 7 6 9 11
14 22 29 37 42 46 46 39 37 31 21 16 13 6 4 7 9 11 16 13 11 5 6 14 13 19 23 20 14 11 8 6 6 4 2 3 4 7 2 5 10 14 5 8 6 16 11 11 21 10 6 5 6 9
16 24 31 38 43 46 42 34 35 22 15 18 16 10 4 7 7 6 4 11 14 12 3 4 8 7 9 12 12 8 6 6 4 4 6 5 1 5 6 4 5 10 8 3 3 15 8 15 15 8 4 2 2 7
18 26 33 38 44 45 37 32 29 14 17 19 14 13 6 7 5 4 4 7 10 12 2 7 8 2 7 8 6 8 13 6 4 5 3 4 5 6 5 5 10 14 11 8 14 20 16 16 11 7 6 4 3 8
20 28 34 39 43 42 34 29 22 14 21 15 10 12 12 14 10 7 8 8 8 6 4 1 5 8 3 4 4 7 3 2 7 4 5 2 7 5 4 8 14 18 16 17 22 11 7 13 11 9 5 5 9 13
22 29 35 40 42 39 32 25 19 20 20 10 7 8 8 5 4 5 8 7 7 4 5 4 8 7 1 2 4 2 3 2 3 2 4 5 4 4 7 17 23 24 21 19 18 13 12 14 10 7 7 10 14 15
24 31 35 40 39 36 29 25 18 23 8 6 6 4 5 4 5 9 4 2 3 6 8 8 4 4 4 2 3 7 4 5 4 6 1 6 2 4 2 13 21 25 17 20 18 17 17 13 10 9 11 15 15 14
27 32 36 38 34 31 24 25 20 22 10 10 7 4 4 6 5 4 2 5 5 5 8 7 8 8 5 11 8 7 7 5 5 7 6 2 3 14 3 18 21 23 20 18 12 10 12 10 11 11 14 15 15 13
28 32 35 32 31 26 21 25 17 18 18 13 7 12 10 8 6 3 4 2 6 7 9 12 10 6 3 3 8 1 3 6 4 4 5 4 9 15 8 19 19 20 18 16 15 11 12 12 11 11 12 13 12 13
28 32 31 26 29 21 15 23 16 14 10 10 8 6 8 7 11 2 3 4 3 8 13 15 7 4 4 4 5 4 4 1 1 4 5 8 19 11 10 15 18 18 18 17 19 17 17 17 14 12 12 12 12 14
28 29 22 28 23 17 10 19 20 16 11 6 7 11 5 4 6 7 8 8 8 9 16 17 11 6 4 6 4 6 3 5 5 2 8 11 16 9 13 16 17 19 20 19 18 18 20 20 17 16 15 14 14 15
28 21 22 23 20 14 6 9 19 14 7 7 6 5 6 7 8 7 6 5 6 13 16 17 13 7 2 5 1 3 5 1 7 9 8 17 16 12 8 14 16 16 18 20 21 22 22 21 20 19 19 19 20 21
26 21 28 24 18 12 10 3 7 11 7 6 7 6 5 4 5 1 8 11 14 16 12 8 7 6 2 6 1 6 11 8 7 13 18 18 18 16 12 10 13 15 19 22 25 27 24 23 20 22 20 23 24 24
23 27 28 24 17 10 11 7 7 7 6 4 8 10 7 4 5 6 8 13 15 9 4 5 3 9 4 2 5 8 7 10 15 14 15 15 15 16 14 13 15 18 21 25 25 23 25 25 22 23 25 23 25 30
26 24 25 22 20 7 14 8 5 5 7 6 4 8 4 4 3 5 9 13 10 10 6 7 5 4 6 5 6 9 12 14 10 10 13 15 15 17 17 19 20 22 23 22 20 21 25 31 37 37 31 31 37 40
25 22 21 19 18 9 6 7 6 5 7 6 4 3 2 1 1 6 8 11 12 6 3 1 3 5 6 8 10 10 13 14 14 15 16 15 17 19 23 25 28 29 28 27 26 27 28 30 35 36 37 37 39 39
18 18 15 16 14 7 4 5 6 4 4 4 1 2 3 1 4 4 4 7 6 3 2 2 7 10 10 7 6 7 7 8 11 18 20 24 22 23 27 30 33 33 33 32 32 34 31 31 30 28 34 37 43 46
13 16 12 13 9 8 5 5 5 4 2 1 4 4 1 3 2 4 5 9 4 2 4 5 10 9 9 7 4 1 3 6 11 18 24 30 30 30 33 36 38 39 38 34 32 28 30 31 35 41 45 50 46 46
15 12 10 9 7 5 5 7 2 2 0 2 1 4 2 3 6 7 6 1 3 6 3 3 4 4 4 4 6 8 12 17 21 22 26 30 34 34 37 32 33 35 34 32 30 28 21 23 27 35 42 46 47 45
10 9 6 8 4 5 3 6 1 3 2 4 2 3 2 1 5 7 1 3 3 7 5 6 7 5 7 11 16 20 20 20 23 29 31 33 33 30 30 31 31 32 34 34 29 32 34 37 42 41 46 43 39 43
7 4 3 4 5 3 3 2 3 3 1 1 2 1 3 5 6 4 2 3 8 7 4 2 4 11 15 16 20 25 25 23 26 28 31 31 28 30 30 30 32 31 32 35 36 31 37 44 46 45 44 41 40 41
4 5 4 4 4 3 3 3 4 2 3 5 4 0 4 5 5 4 1 5 7 6 6 8 12 18 24 30 32 32 29 28 30 30 31 28 32 36 39 42 41 42 40 38 35 39 41 41 41 40 41 44 47 50
5 5 5 7 4 5 6 2 4 7 5 4 3 6 5 7 6 2 3 3 3 6 14 21 28 33 34 35 37 31 26 22 25 26 30 34 40 42 41 42 39 35 34 36 39 44 46 46 46 46 48 47 48 50
3 5 3 5 3 4 2 2 4 5 4 5 6 9 6 5 3 4 3 1 8 18 22 26 26 27 30 30 26 25 29 33 29 34 38 25 17 13 16 25 32 38 49 46 41 39 41 44 48 51 52 53 55 57
2 3 2 6 3 4 6 5 4 3 1 4 10 6 7 5 9 13 7 14 27 36 33 24 19 24 27 22 16 17 19 19 18 18 14 1 20 30 36 36 33 43 42 42 47 43 42 45 45 47 48 49 48 44
1 2 3 2 3 3 2 2 3 1 4 10 11 17 19 27 19 26 32 36 33 28 25 23 19 15 6 9 14 18 22 26 28 33 33 32 37 40 45 49 53 55 55 62 59 49 51 63 63 58 61 55 52 51
2 4 4 4 5 4 2 6 13 13 12 18 25 32 35 30 20 25 26 23 14 11 11 12 15 17 17 14 15 19 23 27 28 31 33 33 36 41 46 47 45 44 46 53 57 60 61 62 63 62 60 59 60 59
3 4 5 5 7 11 13 17 19 21 27 30 32 33 31 20 8 9 7 6 7 8 9 12 15 19 19 20 21 21 24 30 33 41 44 39 32 36 44 46 42 43 44 46 48 49 52 54 52 53 53 54 53 52
5 5 7 10 19 15 16 12 24 33 37 34 30 23 14 10 9 5 3 7 8 12 16 17 18 19 22 22 21 26 36 36 30 28 32 40 42 45 48 49 43 44 47 51 53 55 55 55 55 59 62 64 62 59
8 9 10 11 10 13 23 21 25 25 20 24 16 6 5 6 4 6 4 6 6 9 15 17 20 23 38 44 34 28 30 27 31 36 41 43 41 48 56 57 55 54 53 55 58 58 56 54 58 61 60 59 63 67
Wind_Direction_850mb
352 358 357 356 354 353 354 356 355 358 355 355 356 5 14 19 47 62 51 73 102 89 57 57 44 70 57 74 207 141 159 205 212 251 277 281 278 186 261 339 273 264 270 247 270 271 240 147 155 253 81 119 152 165
348 351 354 354 350 352 353 353 354 355 351 355 354 13 23 27 59 75 59 80 94 91 116 90 73 68 76 80 319 177 357 192 220 239 228 290 238 215 287 261 181 246 313 347 332 29 113 160 95 129 135 149 157 219
345 349 351 350 351 351 352 352 353 353 352 355 2 22 38 52 96 71 81 96 100 105 98 87 44 30 41 45 51 288 226 205 219 195 210 346 245 291 243 249 171 189 198 257 215 147 155 145 143 148 163 161 206 318
341 347 349 350 350 350 351 350 353 354 359 13 5 17 65 62 119 58 76 89 113 109 118 80 71 59 65 69 52 278 264 244 194 187 214 206 253 222 341 11 269 33 168 175 154 170 166 186 184 185 201 247 289 313
340 345 348 350 349 349 349 351 355 356 4 12 10 15 115 92 120 73 71 66 73 91 78 124 94 59 57 56 54 54 74 129 172 171 207 99 111 194 106 265 224 191 155 228 11 152 217 164 194 199 227 291 305 320
340 345 347 349 348 347 350 353 356 358 10 15 15 22 131 140 111 87 111 83 73 99 172 131 119 73 43 41 48 68 87 79 88 82 89 107 151 283 231 296 76 164 159 127 75 156 167 144 157 175 223 233 297 324
342 343 346 348 347 348 351 353 358 355 359 9 11 26 65 145 113 92 58 138 76 69 73 133 149 104 41 44 38 47 53 64 59 113 91 100 158 241 282 306 133 171 168 147 144 146 148 163 175 175 177 183 295 323
341 343 345 346 347 349 349 355 0 346 348 359 24 42 65 112 107 44 91 115 81 61 44 144 93 175 22 37 88 12 46 124 38 100 143 179 167 246 265 120 150 155 152 150 161 169 174 175 175 169 194 256 300 314
339 342 344 347 348 347 350 359 3 345 355 34 87 73 68 68 60 32 115 94 95 57 9 318 356 52 177 47 323 257 295 160 140 179 101 241 139 244 48 166 171 170 166 174 178 192 183 178 188 209 267 289 302 308
338 342 345 347 347 348 354 2 3 1 40 45 67 106 112 17 91 105 47 72 67 33 30 39 356 65 277 249 143 296 336 5 289 72 267 254 15 79 105 173 173 172 173 170 176 185 186 201 212 245 279 298 293 287
340 343 345 345 347 351 358 5 15 15 45 45 50 70 136 105 75 37 64 4 358 130 28 21 11 333 7 308 1 2 354 309 259 93 291 341 32 45 156 164 168 175 176 184 201 205 212 214 232 258 279 288 285 275
340 341 341 346 350 353 1 8 18 15 21 28 53 64 53 35 38 48 43 53 13 49 19 351 356 337 328 292 272 80 266 266 25 86 284 306 37 4 166 171 175 184 192 203 207 221 221 236 240 246 277 283 276 275
338 340 343 347 351 352 0 16 19 7 17 36 37 53 26 27 48 32 122 110 94 10 11 345 337 318 256 242 263 264 265 34 21 249 11 47 357 348 186 188 188 191 198 208 219 229 227 220 218 243 264 272 268 279
339 341 348 351 353 353 349 21 24 26 45 49 37 16 16 74 57 35 43 48 49 356 349 335 301 315 319 249 334 246 69 265 251 300 42 22 352 333 214 210 208 215 220 228 235 236 233 225 234 255 259 256 265 281
347 352 355 357 358 358 327 356 20 35 47 59 43 51 68 71 75 61 29 338 349 330 326 321 270 254 237 258 321 332 223 313 12 32 2 355 348 345 274 237 239 245 241 245 251 251 242 237 248 260 261 257 267 279
354 6 5 4 360 12 9 324 5 38 50 53 52 120 99 214 119 338 343 336 337 318 291 255 268 257 117 316 241 4 316 15 27 7 357 353 358 353 331 286 275 278 269 267 271 262 251 244 261 273 266 261 269 276
3 359 1 7 8 25 29 69 48 54 64 77 87 65 49 39 26 25 5 351 337 320 10 309 291 34 296 1 55 4 25 5 352 352 356 1 354 348 340 317 299 293 288 287 281 264 251 257 261 267 268 274 267 277
1 3 4 6 14 54 51 53 63 69 79 88 113 80 46 41 43 52 6 351 357 358 340 31 322 31 19 15 32 29 357 341 337 340 336 335 339 335 327 317 311 303 294 289 280 269 257 254 260 269 272 278 280 286
356 1 5 7 12 33 32 26 58 85 78 91 78 36 344 303 328 334 340 344 357 6 345 269 62 34 45 31 358 5 3 3 350 340 332 327 324 321 318 312 304 301 294 284 272 269 267 267 271 272 272 274 278 279
345 353 0 8 13 41 37 32 53 68 101 61 89 7 317 314 314 321 333 347 327 287 176 93 63 67 54 68 65 48 28 10 4 351 349 341 328 321 320 316 311 306 300 293 286 275 266 267 273 282 281 280 278 276
351 353 355 4 28 46 65 31 61 59 36 172 350 326 337 318 3 9 340 322 229 10 121 108 124 128 129 128 129 122 312 335 329 324 322 319 322 325 323 323 321 313 304 298 289 291 292 276 275 287 278 278 276 279
349 352 5 24 34 42 65 31 41 320 271 321 336 337 59 66 24 8 331 168 70 40 23 164 161 167 224 260 264 291 295 308 308 314 320 322 318 324 324 324 330 336 338 318 302 307 307 303 305 305 299 290 283 278
349 3 32 24 16 42 71 9 317 9 289 29 289 205 126 22 10 344 205 46 68 342 283 216 218 248 283 294 298 297 297 300 307 315 319 321 320 323 326 329 327 324 322 324 321 311 309 308 306 309 311 304 292 289
7 41 35 27 22 39 342 42 357 351 311 252 352 338 49 351 319 275 348 83 15 15 48 36 321 309 302 294 299 315 313 307 305 309 319 319 318 324 327 321 320 322 319 320 315 308 317 320 311 306 307 308 303 298
32 19 16 22 18 346 34 45 27 30 46 15 305 297 36 314 282 292 260 88 47 59 42 6 330 315 310 309 310 310 314 308 307 307 313 314 312 310 311 315 315 315 317 313 308 310 310 317 323 321 314 309 306 302
68 24 28 14 42 360 13 4 30 358 331 315 5 336 305 286 266 247 96 88 60 356 339 329 321 315 313 314 314 314 315 311 304 300 303 308 311 310 310 309 312 315 320 314 316 308 303 300 300 302 305 307 310 312
59 74 47 23 342 320 255 359 335 301 318 338 357 328 302 277 288 83 358 297 318 320 322 320 314 309 306 308 305 300 305 302 301 298 304 320 344 338 343 344 336 325 319 326 326 322 315 309 305 303 302 300 300 301
50 23 3 6 357 347 310 305 299 333 45 4 312 303 302 291 300 342 327 305 314 311 314 313 312 304 306 310 314 321 313 328 345 326 331 260 315 333 341 350 346 346 346 344 344 344 339 336 333 326 320 314 309 309
84 352 329 295 304 263 261 294 303 348 334 318 301 297 281 299 301 294 297 305 309 314 316 313 333 355 5 5 24 20 15 16 14 16 11 356 345 343 345 341 338 335 333 331 332 333 328 324 326 322 320 318 314 309
99 357 292 275 284 274 224 291 295 287 284 294 297 292 288 288 260 291 306 315 338 350 353 10 26 36 43 41 24 17 14 13 11 8 358 344 334 330 332 335 334 333 333 331 332 330 329 329 328 326 326 326 323 318
285 279 262 265 275 301 302 296 291 283 290 290 291 288 290 298 259 302 327 358 36 43 44 32 25 24 18 8 3 358 352 350 343 338 337 339 336 334 333 334 332 332 331 332 332 331 330 332 330 330 329 328 325 326
267 261 286 289 308 309 308 300 299 296 296 296 297 290 275 249 209 225 11 66 65 53 44 33 17 1 355 348 333 335 330 332 331 332 330 329 330 331 332 333 330 327 326 324 323 323 321 320 320 322 321 320 319 318
269 265 277 288 292 301 313 311 305 301 291 289 295 268 262 274 151 190 133 100 84 26 9 7 357 347 339 333 328 319 327 323 315 325 324 327 328 326 326 325 323 321 321 319 317 316 315 316 314 315 316 317 317 316